Regional Weather Roundup
Issued by NWS

Home | Current Version | Previous Version | Text Only | Print | Product List | Glossary On
Versions: 1 2 3 4 5 6 7 8 9 10 11 12 13 14 15 16 17 18 19 20 21 22 23 24 25 26 27 28 29 30 31 32 33 34 35 36 37 38 39 40 41 42 43 44 45 46 47 48 49 50
000
ASUS44 KOUN 182310
RWROK

WEATHER ROUNDUP FOR OKLAHOMA
NATIONAL WEATHER SERVICE NORMAN OK
500 PM CST SAT NOV 18 2017

NOTE: "FAIR" INDICATES FEW OR NO CLOUDS BELOW 12,000 FEET WITH NO
      SIGNIFICANT WEATHER AND/OR OBSTRUCTIONS TO VISIBILITY.

OKZ001>007-009>012-014-015-017-190000-
NORTHWEST OKLAHOMA AND THE PANHANDLE

CITY           SKY/WX    TMP DP  RH WIND       PRES   REMARKS
GAGE           PTCLDY    53  17  24 N13G23    30.23R
GUYMON         CLEAR     50  14  23 N12       30.27R
ENID/WOODRING  PTCLDY    55  28  35 N16G25    30.17R
$$

OKZ016-021>023-033>039-044-045-190000-
SOUTHWEST OKLAHOMA

CITY           SKY/WX    TMP DP  RH WIND       PRES   REMARKS
LAWTON/REGL    CLEAR     56  32  40 N17G23    30.21R
LAWTON/FT SILL CLEAR     55  35  48 N12       30.20R
FREDERICK      CLEAR     58  30  34 N13G24    30.20R
CLINTON        CLEAR     54  20  26 N17       30.23R
HOBART         CLEAR     57  26  30 N18       30.22R
ALTUS AFB      CLEAR     57  22  25 N14G24    30.22R
$$

OKZ018>020-024>031-190000-
CENTRAL OKLAHOMA

CITY           SKY/WX    TMP DP  RH WIND       PRES   REMARKS
OKLAHOMA CITY  PTCLDY    53  31  42 N14       30.18R
OKC/WILEY POST CLEAR     54  33  45 N12       30.18R
OKC/TINKER AFB CLEAR     53  32  44 N16       30.17R
STILLWATER     PTCLDY    54  32  43 NW7       30.16R
GUTHRIE        PTCLDY    55  32  41 VRB6      30.18R
$$

OKZ008-013-054>072-190000-
NORTHEAST OKLAHOMA

CITY           SKY/WX    TMP DP  RH WIND       PRES   REMARKS
TULSA          PTCLDY    54  33  45 NW13      30.14R
TULSA/JONES    MOCLDY    55  31  39 NW8G18    30.14R
PONCA CITY     CLEAR     55  27  34 NW14G24   30.15R
BARTLESVILLE   PTCLDY    54  33  45 VRB3      30.13R
MUSKOGEE       CLEAR     51  30  44 NW10      30.14R
$$

OKZ032-040>043-046>053-073>077-190000-
SOUTH CENTRAL/SOUTHEAST OKLAHOMA

CITY           SKY/WX    TMP DP  RH WIND       PRES   REMARKS
ARDMORE/DWNTWN CLEAR     54  30  40 NE12G20   30.19R
MCALESTER      MOCLDY    54  32  43 N13       30.15R
$$




USA.gov is the U.S. government's official web portal to all federal, state and local government web resources and services.